Retour au catalogue

COSMOS 970 DEB

ActifLEO
NORAD 65005·DEBRIS·🇷🇺 Russia

Lancé Dec 21, 1977 depuis Baikonur Cosmodrome

Loading…

Prochains Passages (prochaines 24 heures)

TLE

VieillissantSource: Space-Track

Époque: Sep 9, 2026, 18:32 UTC

1 65005U 77121DS  26252.77222419  .00000051  00000-0  11502-3 0  9993
2 65005  65.8869 266.0185 0171179 159.4380 201.3687 13.79424413199862

Suivez COSMOS 970 DEB en temps réel avec AllMySat

Download on the App Store